Autodesk Debt to Equity Ratio 2006-2019 | ADSK

Current and historical debt to equity ratio values for Autodesk (ADSK) over the last 10 years. The debt/equity ratio can be defined as a measure of a company's financial leverage calculated by dividing its long-term debt by stockholders' equity. Autodesk debt/equity for the three months ending October 31, 2019 was 0.00.
Autodesk Debt/Equity Ratio Historical Data
Date Long Term Debt Shareholder's Equity Debt to Equity Ratio
2019-10-31 $1.53B $-0.17B -8.92
2019-07-31 $1.65B $-0.19B -8.48
2019-04-30 $2.23B $-0.25B -9.09
2019-01-31 $2.09B $-0.21B -9.90
2018-10-31 $1.59B $-0.34B -4.69
2018-07-31 $1.59B $-0.24B -6.57
2018-04-30 $1.59B $-0.13B -12.34
2018-01-31 $1.59B $-0.26B -6.20
2017-10-31 $1.59B $0.11B 14.78
2017-07-31 $1.59B $0.32B 5.02
2017-04-30 $1.09B $0.51B 2.15
2017-01-31 $1.09B $0.73B 1.49
2016-10-31 $1.49B $1.06B 1.41
2016-07-31 $1.49B $1.33B 1.12
2016-04-30 $1.49B $1.44B 1.04
2016-01-31 $1.49B $1.62B 0.92
2015-10-31 $1.49B $1.73B 0.86
2015-07-31 $1.49B $1.90B 0.78
2015-04-30 $0.75B $2.22B 0.34
2015-01-31 $0.74B $2.22B 0.34
2014-10-31 $0.75B $2.27B 0.33
2014-07-31 $0.75B $2.28B 0.33
2014-04-30 $0.75B $2.29B 0.33
2014-01-31 $0.75B $2.26B 0.33
2013-10-31 $0.75B $2.16B 0.35
2013-07-31 $0.75B $2.05B 0.36
2013-04-30 $0.75B $2.09B 0.36
2013-01-31 $0.75B $2.04B 0.37
2012-10-31 $0.00B $2.02B 0.00
2012-07-31 $0.00B $2.05B 0.00
2012-04-30 $0.00B $2.05B 0.00
2012-01-31 $0.00B $1.88B 0.00
2011-10-31 $0.00B $1.83B 0.00
2011-07-31 $0.00B $1.79B 0.00
2011-04-30 $0.00B $1.75B 0.00
2011-01-31 $0.00B $1.61B 0.00
2010-10-31 $0.00B $1.56B 0.00
2010-07-31 $0.00B $1.53B 0.00
2010-04-30 $0.00B $1.51B 0.00
2010-01-31 $0.00B $1.47B 0.00
2009-10-31 $0.00B $1.43B 0.00
2009-07-31 $0.00B $1.39B 0.00
2009-04-30 $0.00B $1.33B 0.00
2009-01-31 $0.00B $1.31B 0.00
2008-10-31 $0.00B $1.40B 0.00
2008-07-31 $0.00B $1.26B 0.00
2008-04-30 $0.00B $1.14B 0.00
2008-01-31 $0.00B $1.23B 0.00
2007-10-31 $0.00B $1.18B 0.00
2007-07-31 $0.00B $1.11B 0.00
2007-04-30 $0.00B $1.24B 0.00
2007-01-31 $0.00B $1.12B 0.00
2006-10-31 $0.00B $1.00B 0.00
2006-07-31 $0.00B $0.90B 0.00
2006-04-30 $0.00B $0.85B 0.00
2006-01-31 $0.00B $0.80B 0.00
2005-10-31 $0.00B $0.78B 0.00
2005-07-31 $0.00B $0.71B 0.00
2005-04-30 $0.00B $0.71B 0.00
2005-01-31 $0.00B $0.65B 0.00
Sector Industry Market Cap Revenue
Computer and Technology Computer Software $41.954B $2.570B
Autodesk, Inc., is a leader in 3D design, engineering and entertainment software. Since its introduction of AutoCAD software in 1982, Autodesk continues to develop the broadest portfolio of 3D software for global markets. Customers across the manufacturing, architecture, building, construction, and media and entertainment industries-including the last 19 Academy Award winners for Best Visual Effects-use Autodesk software to design, visualize, and simulate their ideas before they're ever built or created. From blockbuster visual effects and buildings that create their own energy, to electric cars and the batteries that power them, the work of our 3D software customers is everywhere you look. Through their apps for iPhone, iPad, iPod, and Android, they're also making design technology accessible to professional designers and amateur designers, homeowners, students, and casual creators - anyone who wants to create and share their ideas with the world.
Stock Name Country Market Cap PE Ratio
Microsoft (MSFT) United States $1000.000B 31.51
Adobe (ADBE) United States $169.392B 53.97
Oracle (ORCL) United States $166.958B 15.49
Salesforce, Inc (CRM) United States $158.658B 167.17
SAP SE (SAP) Germany $151.468B 29.58
Intuit (INTU) United States $72.960B 47.55
VMware (VMW) United States $59.138B 32.13
Dassault Systemes SA (DASTY) France $41.091B 45.27
ANSYS (ANSS) United States $22.747B 49.67
Synopsys (SNPS) United States $21.382B 45.38
Cadence Design Systems (CDNS) United States $19.298B 19.51
SS&C Technologies Holdings (SSNC) United States $14.852B 16.24
Citrix Systems (CTXS) United States $13.068B 26.05
Open Text (OTEX) Canada $11.823B 36.11
PTC (PTC) United States $9.289B 58.71
Aspen Technology (AZPN) United States $7.714B 31.04
Pegasystems (PEGA) United States $7.443B 0.00
Trend Micro (TMICY) Japan $7.171B 28.04
Nuance Communications (NUAN) United States $6.300B 27.49
Konami (KNMCY) Japan $5.051B 17.53
Manhattan Associates (MANH) United States $4.615B 54.83
Verint Systems (VRNT) United States $3.722B 21.59
Descartes Systems Group (DSGX) Canada $3.633B 107.93
Blackbaud (BLKB) United States $3.581B 57.84
ACI Worldwide (ACIW) United States $3.445B 32.04
Cornerstone OnDemand (CSOD) United States $2.614B 72.31
CommVault Systems (CVLT) United States $2.070B 98.73
PROS Holdings (PRO) United States $2.066B 0.00
Bottomline Technologies (EPAY) United States $2.005B 96.94
Progress Software (PRGS) United States $1.779B 17.30
MicroStrategy (MSTR) United States $1.416B 115.80
Sapiens (SPNS) Israel $1.211B 31.83
QAD (QADB) United States $0.692B 425.00
Simulations Plus (SLP) United States $0.643B 72.88
American Software (AMSWA) United States $0.545B 55.00
Magic Software Enterprises (MGIC) Israel $0.500B 17.93
Rosetta Stone (RST) United States $0.425B 0.00
Avid Technology (AVID) United States $0.353B 19.09
Icad Inc (ICAD) United States $0.219B 0.00
Smith Micro Software (SMSI) United States $0.196B 17.59
GlobalSCAPE (GSB) United States $0.167B 12.18
OptimizeRx (OPRX) United States $0.160B 0.00
ServiceSource (SREV) United States $0.139B 0.00
Park City (PCYG) United States $0.103B 58.56
NetSol Technologies (NTWK) United States $0.045B 8.75
GSE Systems (GVP) United States $0.026B 8.47
Neonode (NEON) Sweden $0.020B 0.00
BSQUARE (BSQR) United States $0.016B 0.00
CounterPath (CPAH) Canada $0.015B 0.00